Terminal Aerodrome Forecast
Issued by NWS Sterling, VA

Current Version | Previous Version | Graphics & Text | Print | Product List | Glossary On
Versions: 1 2 3 4 5 6 7 8 9 10 11 12 13 14 15 16 17 18 19 20 21
000
FTUS41 KLWX 201700
TAFDCA
TAF
KDCA 201737Z 2018/2118 22012G18KT P6SM FEW050 SCT200
     FM202000 28012G20KT P6SM FEW050 SCT200
     FM210000 30008KT P6SM SCT200
     FM211400 31012G18KT P6SM SKC=

USA.gov is the U.S. government's official web portal to all federal, state and local government web resources and services.